Wind_Speed
15 15 15 15 15 15 14 14 14 13 13 13 14 13 13 14 14 15 15 15 16 17 17 17 18 19 20 20 21 21 22 22 22 22 22 23 24 24
18 17 17 17 17 17 17 17 17 17 17 17 17 17 17 17 17 18 18 19 19 19 20 20 21 22 22 23 23 24 25 25 25 25 25 26 26 27
19 19 19 20 19 20 20 20 20 20 21 20 20 20 21 21 21 22 22 22 22 23 23 24 24 25 25 26 27 27 27 28 28 28 29 29 30 30
21 21 21 20 21 21 22 22 22 22 23 24 24 23 24 24 24 25 25 25 26 26 26 27 27 28 29 29 29 30 30 30 31 31 32 32 33 33
22 23 23 23 23 24 24 24 24 24 25 25 26 26 26 27 27 27 28 28 29 29 30 30 31 32 32 32 33 33 33 33 34 34 35 35 36 36
24 24 24 25 25 25 25 25 26 26 27 27 28 29 29 30 30 31 31 31 32 33 33 34 35 35 36 36 37 37 37 37 37 38 39 39 40 40
26 26 25 25 26 27 27 27 28 28 29 29 30 31 31 31 32 33 34 35 36 36 37 38 38 38 39 39 40 40 41 41 42 42 42 43 43 44
27 27 27 27 27 28 28 29 30 30 31 31 31 33 34 34 35 36 37 38 38 38 39 40 41 42 43 43 43 43 44 44 45 45 46 47 47 48
28 28 28 28 28 29 30 30 31 32 32 33 34 35 36 36 37 38 38 39 40 42 42 43 44 45 46 47 47 47 47 48 48 48 48 49 50 51
27 27 27 28 29 30 31 32 34 34 34 36 37 38 40 40 41 41 42 43 44 45 46 46 47 46 46 47 47 48 49 50 51 51 51 52 53 53
27 27 29 30 31 31 33 34 34 35 36 38 39 40 42 42 42 42 43 44 45 46 47 47 47 47 48 49 50 51 52 53 53 54 54 54 55 55
28 29 30 32 33 34 35 36 37 37 37 39 39 40 41 42 43 44 46 46 47 47 48 48 49 50 51 52 52 53 54 55 56 57 57 57 58 58
31 32 33 33 35 36 36 37 38 38 39 39 40 41 43 44 45 46 47 47 47 48 50 51 52 53 54 54 55 56 56 57 58 59 60 60 60 60
33 34 34 34 34 35 36 36 37 38 39 41 42 43 45 46 47 48 49 49 50 51 52 54 55 56 57 58 58 59 60 60 60 60 59 59 59 58
31 32 33 33 34 35 36 37 37 39 41 42 44 46 47 48 49 50 50 51 52 54 55 56 57 58 58 59 59 59 59 59 58 57 55 55 55 55
31 32 34 34 35 37 39 39 40 41 43 44 46 47 48 49 50 50 52 53 54 55 56 56 57 58 58 58 58 57 57 56 55 53 53 53 53 53
34 34 35 36 37 39 39 40 42 44 45 45 47 48 49 50 51 52 53 54 54 55 55 56 56 56 55 55 55 54 53 52 51 50 51 51 51 52
34 35 36 37 39 39 40 42 43 44 45 46 47 48 49 50 51 52 52 53 53 53 53 53 53 52 51 51 51 51 50 50 49 50 50 50 50 50
34 35 36 37 39 40 41 42 43 44 45 46 47 48 49 49 50 50 50 50 50 50 49 49 48 47 47 46 47 46 45 45 45 45 45 45 46 46
35 36 37 38 39 40 41 42 43 44 45 45 46 47 47 48 48 48 48 47 46 45 45 44 44 44 43 43 42 42 42 41 41 40 40 40 40 40
36 36 37 38 39 40 41 42 43 43 43 44 45 46 46 46 46 45 44 43 42 42 42 41 41 41 40 40 40 39 39 39 38 38 38 37 37 37
34 36 37 38 39 40 40 41 42 42 42 43 43 44 44 43 42 41 41 40 40 39 39 39 39 38 38 38 38 37 37 36 36 35 35 34 33 33
35 36 37 38 38 39 39 40 40 40 41 41 41 41 40 39 38 38 37 37 37 36 36 37 36 36 36 35 35 34 34 33 33 32 31 31 30 30
Wind_Direction
244 246 248 251 252 255 258 262 266 270 272 274 276 276 277 279 280 282 284 285 286 288 289 289 288 287 288 288 288 287 287 286 285 283 281 280 279 280
248 249 252 255 256 257 258 261 264 267 269 272 275 276 277 279 281 282 283 283 284 286 287 287 287 287 287 287 287 286 286 285 284 284 284 283 282 281
252 253 255 256 257 260 261 262 265 267 269 272 275 277 278 279 280 280 282 282 283 285 286 287 287 287 287 287 287 286 285 285 284 284 283 283 282 282
254 256 258 258 259 261 262 264 266 267 270 273 275 276 277 279 280 281 282 283 284 285 286 287 287 287 287 287 286 286 285 285 285 284 284 283 283 282
255 256 258 260 262 263 264 265 267 269 271 274 274 275 276 278 279 281 281 282 284 284 285 286 286 286 286 285 285 284 284 283 283 283 283 283 283 282
258 258 260 263 263 263 264 266 268 271 272 273 273 274 275 277 278 279 281 282 284 284 285 285 285 285 286 286 285 284 283 283 282 282 282 282 282 281
261 261 261 262 263 263 265 266 268 271 272 272 272 273 275 277 278 279 281 282 283 284 285 285 285 286 285 285 284 283 283 283 283 283 282 282 282 281
262 263 262 262 263 265 266 267 269 271 272 273 273 275 277 279 280 281 282 282 283 285 285 286 286 286 285 284 284 283 283 284 284 284 283 282 281 281
264 265 264 263 263 264 267 269 270 271 271 273 275 276 278 280 282 282 282 282 284 286 286 286 287 286 285 284 284 283 284 284 285 284 283 283 282 281
265 265 265 265 266 266 267 268 270 271 272 273 275 276 277 279 281 281 281 282 283 284 285 285 285 285 284 284 285 285 285 285 285 284 284 284 283 282
268 268 269 268 268 269 269 270 271 271 272 274 276 277 278 280 281 282 283 285 285 285 284 284 284 285 285 285 285 285 285 286 285 285 285 284 284 283
271 272 272 272 272 273 272 272 273 273 274 276 277 279 280 281 282 283 285 285 286 286 285 284 284 285 286 286 287 286 286 286 286 285 284 283 283 282
270 271 273 274 275 276 275 275 275 276 277 278 281 283 284 283 283 284 285 285 285 285 286 285 286 286 287 287 287 287 287 287 286 285 284 283 282 281
271 272 273 274 277 277 276 277 278 280 281 282 284 285 285 285 285 286 286 286 286 286 286 287 287 288 288 288 288 288 287 287 287 286 285 284 283 281
275 275 274 276 278 279 281 282 282 283 285 286 286 287 287 288 288 288 287 287 287 287 288 288 288 288 288 288 288 288 288 287 286 285 284 283 282 281
278 279 280 282 283 283 283 283 285 287 287 288 288 288 288 289 289 289 289 290 290 290 290 290 289 289 289 288 288 288 288 287 285 284 284 283 281 281
281 280 281 282 284 285 285 286 286 288 288 288 289 290 290 291 291 291 292 292 292 292 292 291 291 291 290 290 289 289 288 287 286 284 284 283 282 282
284 283 284 285 287 287 288 288 289 289 289 291 291 291 292 292 293 294 294 294 294 294 294 294 293 293 292 291 290 290 289 288 287 286 284 284 283 283
284 285 286 287 289 290 291 291 292 292 293 293 294 294 294 294 295 296 296 296 296 296 296 296 295 294 293 292 292 291 290 289 288 287 287 286 285 284
288 289 290 291 292 293 293 293 294 294 295 295 295 295 296 296 297 297 298 297 297 297 298 297 297 296 295 294 293 293 292 291 290 290 289 289 288 287
290 291 293 293 294 294 294 295 297 297 296 296 297 298 298 298 298 298 298 298 297 298 298 298 298 297 296 295 294 294 293 293 292 292 291 290 289 288
293 294 295 295 296 296 297 297 298 298 298 299 299 300 300 299 299 299 299 299 299 299 299 299 299 298 297 296 296 295 295 294 293 293 293 291 290 289
298 297 297 297 297 297 297 298 299 300 301 301 301 301 301 300 300 300 300 300 301 301 301 301 301 301 300 299 298 297 295 295 294 294 294 294 293 291
Height
5888 5889 5889 5890 5890 5890 5890 5890 5891 5890 5890 5890 5889 5889 5888 5887 5887 5886 5885 5885 5884 5883 5882 5881 5880 5879 5878 5877 5876 5875 5874 5873 5871 5870 5869 5869 5868 5867
5885 5885 5886 5886 5886 5886 5887 5886 5886 5886 5886 5886 5885 5885 5884 5883 5883 5882 5881 5880 5879 5878 5877 5876 5875 5874 5873 5872 5870 5869 5868 5867 5866 5865 5864 5863 5862 5861
5880 5881 5881 5881 5882 5882 5882 5882 5882 5882 5881 5881 5880 5880 5879 5878 5878 5877 5876 5875 5874 5873 5871 5870 5869 5868 5867 5865 5864 5863 5861 5860 5859 5858 5857 5856 5855 5854
5875 5876 5876 5876 5876 5877 5877 5877 5877 5876 5876 5875 5875 5874 5873 5873 5872 5871 5870 5868 5867 5866 5865 5864 5862 5861 5860 5858 5857 5855 5854 5853 5851 5850 5849 5848 5847 5846
5870 5870 5870 5870 5871 5871 5871 5871 5871 5870 5870 5869 5868 5868 5867 5866 5865 5864 5863 5861 5860 5859 5858 5856 5855 5853 5852 5850 5848 5847 5845 5844 5842 5841 5840 5839 5837 5836
5863 5864 5864 5864 5864 5864 5864 5864 5864 5864 5863 5862 5862 5861 5860 5859 5858 5857 5855 5854 5852 5851 5849 5848 5846 5845 5843 5841 5839 5838 5836 5834 5833 5831 5830 5828 5827 5825
5857 5857 5857 5857 5857 5857 5857 5857 5857 5857 5856 5855 5854 5853 5852 5851 5850 5848 5847 5845 5843 5842 5840 5838 5836 5835 5833 5830 5829 5827 5825 5823 5821 5820 5818 5816 5815 5813
5850 5850 5850 5850 5850 5850 5850 5850 5850 5849 5849 5848 5846 5845 5844 5842 5841 5839 5838 5836 5834 5832 5830 5828 5825 5823 5821 5819 5817 5815 5813 5811 5809 5807 5805 5803 5802 5800
5844 5843 5843 5843 5843 5843 5843 5842 5842 5841 5840 5839 5838 5836 5835 5833 5832 5830 5828 5826 5823 5821 5819 5817 5814 5811 5808 5806 5804 5802 5800 5798 5796 5794 5791 5789 5787 5785
5836 5836 5836 5836 5835 5835 5835 5834 5833 5832 5831 5830 5829 5827 5825 5823 5821 5819 5817 5815 5812 5810 5807 5805 5802 5799 5796 5793 5791 5788 5786 5783 5781 5779 5776 5774 5771 5769
5829 5829 5828 5828 5828 5827 5826 5825 5824 5822 5821 5819 5818 5816 5814 5812 5810 5808 5805 5803 5800 5798 5795 5792 5789 5786 5783 5780 5777 5774 5771 5768 5765 5763 5760 5757 5755 5752
5822 5821 5820 5820 5819 5818 5817 5815 5814 5812 5811 5809 5807 5805 5803 5801 5799 5796 5793 5790 5787 5784 5782 5779 5775 5772 5769 5766 5762 5758 5755 5752 5749 5746 5742 5739 5736 5733
5813 5812 5811 5811 5809 5808 5807 5805 5804 5802 5800 5798 5796 5794 5791 5789 5786 5783 5780 5777 5774 5771 5768 5765 5761 5757 5754 5751 5747 5742 5738 5735 5731 5727 5724 5721 5718 5714
5805 5803 5802 5801 5800 5798 5797 5795 5793 5791 5789 5787 5784 5781 5779 5776 5773 5770 5767 5763 5760 5756 5753 5749 5745 5742 5738 5734 5730 5725 5721 5716 5713 5709 5705 5701 5698 5695
5796 5794 5793 5791 5790 5788 5786 5784 5782 5780 5778 5775 5772 5769 5766 5762 5759 5756 5752 5749 5745 5741 5737 5733 5729 5725 5720 5716 5712 5708 5703 5699 5695 5690 5687 5683 5680 5677
5787 5785 5784 5782 5780 5778 5776 5774 5771 5769 5766 5763 5760 5756 5752 5749 5745 5741 5737 5733 5729 5725 5721 5717 5712 5707 5703 5698 5693 5689 5685 5681 5677 5673 5670 5666 5662 5659
5778 5776 5774 5772 5770 5768 5765 5763 5760 5757 5753 5750 5746 5743 5738 5734 5730 5726 5722 5717 5712 5708 5703 5699 5694 5689 5684 5680 5675 5671 5667 5664 5660 5656 5653 5650 5646 5642
5769 5767 5764 5762 5760 5757 5754 5751 5748 5744 5740 5737 5733 5729 5724 5720 5716 5711 5706 5701 5696 5691 5686 5681 5677 5672 5667 5663 5659 5655 5651 5647 5644 5640 5636 5633 5629 5625
5760 5757 5754 5751 5749 5746 5742 5739 5736 5732 5728 5723 5719 5715 5710 5705 5700 5695 5690 5685 5680 5675 5670 5666 5661 5657 5653 5648 5643 5639 5636 5632 5628 5625 5621 5617 5614 5610
5750 5747 5744 5741 5738 5734 5731 5727 5723 5719 5714 5710 5705 5701 5696 5691 5686 5681 5676 5671 5666 5661 5657 5652 5647 5643 5638 5634 5630 5625 5621 5618 5615 5611 5608 5604 5600 5597
5739 5737 5733 5730 5727 5723 5719 5715 5711 5706 5702 5697 5692 5687 5682 5677 5672 5667 5662 5658 5653 5648 5644 5639 5634 5630 5625 5621 5618 5614 5609 5606 5602 5599 5595 5592 5588 5585
5729 5726 5723 5719 5715 5711 5707 5703 5698 5694 5689 5684 5679 5674 5669 5664 5659 5655 5650 5646 5641 5637 5632 5627 5623 5618 5614 5610 5606 5602 5598 5594 5590 5587 5583 5580 5577 5574
5718 5715 5711 5707 5703 5699 5695 5691 5686 5681 5677 5672 5667 5662 5657 5652 5648 5643 5639 5634 5630 5625 5621 5616 5611 5607 5602 5598 5594 5590 5587 5583 5580 5577 5574 5570 5567 5564